Torna al catalogo

THORAD AGENA D DEB

AttivoPO
NORAD 4932·DEBRIS·🇺🇸 United States

Lanciato Apr 8, 1970 da Vandenberg Space Force Base

Loading…

Prossimi Passaggi

TLE

Source: Space-Track
1  4932U 70025FY  26225.03942984  .00000801  00000-0  58688-3 0  9995
2  4932  99.8047 250.7124 0028892 174.6587 241.9969 13.99011770811126

Traccia THORAD AGENA D DEB in tempo reale con AllMySat

Download on the App Store